1496448000.61,21640,20.63,74070.8,0.33,-34.01,-34.53,0,*4B
1496448001.87,21641,20.63,74068.5,0.33,-34.19,-34.83,0,*4E
1496448003.11,21642,20.63,74072.0,0.33,-34.35,-34.89,0,*49
1496448004.36,21643,20.63,74068.8,0.33,-34.65,-35.13,0,*4F
1496448005.6,21644,20.63,74070.8,0.33,-34.35,-34.89,0,*4F
1496448006.85,21645,20.63,74066.0,0.33,-34.65,-35.13,0,*49
1496448008.07,21646,20.63,74070.0,0.31,-34.53,-35.13,0,*4D
1496448009.32,21647,20.63,74066.5,0.31,-34.65,-35.23,0,*4A
1496448010.55,21648,20.63,74066.0,0.31,-34.47,-35.07,0,*43
1496448011.74,21649,20.63,74066.8,0.31,-34.13,-34.71,0,*43
1496448012.98,21650,20.63,74064.8,0.31,-34.19,-34.83,0,*4C
1496448014.19,21651,20.63,74066.8,0.31,-34.71,-35.29,0,*42
1496448015.46,21652,20.63,74066.8,0.29,-34.95,-35.53,0,*4F
1496448016.68,21653,20.63,74068.3,0.29,-34.89,-35.47,0,*46
1496448017.91,21654,20.63,74068.0,0.31,-34.47,-35.07,0,*4E
1496448019.11,21655,20.63,74064.3,0.31,-34.71,-35.29,0,*46
1496448020.33,21656,20.63,74064.3,0.31,-34.89,-35.65,0,*4A
1496448021.55,21657,20.63,74062.5,0.31,-34.95,-35.59,0,*49
1496448022.77,21658,20.63,74064.8,0.29,-34.89,-35.47,0,*4D
1496448024.0,21659,20.63,74064.3,0.29,-34.77,-35.29,0,*45
1496448025.28,21660,20.63,74060.8,0.29,-34.53,-34.95,0,*4F
1496448026.5,21661,20.63,74060.3,0.31,-34.47,-35.07,0,*48
1496448027.72,21662,20.63,74060.5,0.29,-34.25,-34.77,0,*40
1496448028.99,21663,20.63,74060.0,0.29,-34.35,-34.95,0,*4C
1496448030.24,21664,20.63,74060.5,0.29,-34.77,-35.35,0,*46
1496448031.49,21665,20.63,74062.3,0.29,-34.77,-35.35,0,*47
1496448032.69,21666,20.63,74060.0,0.31,-34.77,-35.29,0,*40
1496448033.92,21667,20.63,74066.5,0.29,-34.71,-35.29,0,*4E
1496448035.14,21668,20.63,74064.0,0.29,-34.41,-35.01,0,*48
1496448036.39,21669,20.63,74066.0,0.29,-34.41,-34.95,0,*45
1496448037.61,21670,20.63,74068.3,0.29,-34.07,-34.71,0,*45
1496448038.86,21671,20.63,74070.0,0.29,-34.35,-34.89,0,*42
1496448040.08,21672,20.63,74068.0,0.29,-34.77,-35.17,0,*41
1496448041.31,21673,20.63,74068.8,0.29,-34.77,-35.29,0,*4D
1496448042.59,21674,20.63,74070.3,0.29,-34.53,-34.95,0,*4A
1496448043.8,21675,20.63,74064.5,0.29,-34.41,-34.89,0,*45
1496448045.03,21676,20.63,74064.3,0.29,-34.71,-35.17,0,*43
1496448046.25,21677,20.63,74060.3,0.29,-34.71,-35.13,0,*46
1496448047.48,21678,20.63,74064.8,0.29,-34.59,-35.17,0,*47
1496448048.7,21679,20.63,74062.0,0.29,-34.59,-35.13,0,*42
1496448049.93,21680,20.63,74060.5,0.29,-34.71,-35.17,0,*4A
1496448051.15,21681,20.63,74058.5,0.29,-34.71,-35.17,0,*4B
1496448052.37,21682,20.63,74062.8,0.29,-34.89,-35.47,0,*4A
1496448053.65,21683,20.63,74060.5,0.29,-34.95,-35.35,0,*43
1496448054.92,21684,20.63,74062.3,0.29,-34.95,-35.53,0,*44
1496448056.17,21685,20.63,74066.0,0.29,-35.01,-35.53,0,*49
1496448057.37,21686,20.63,74064.8,0.23,-35.17,-35.77,0,*41
1496448058.6,21687,20.63,74066.8,0.23,-35.07,-35.59,0,*4D
1496448059.85,21688,20.63,74070.3,0.27,-34.95,-35.53,0,*46
1496448061.04,21689,20.63,74074.5,0.23,-35.17,-35.71,0,*48
1496448062.26,21690,20.63,74072.3,0.23,-35.07,-35.59,0,*4B
1496448063.49,21691,20.63,74070.0,0.23,-35.07,-35.59,0,*4A
1496448064.71,21692,20.63,74072.3,0.23,-35.01,-35.53,0,*45
1496448065.92,21693,20.63,74074.3,0.23,-35.01,-35.59,0,*4E
1496448067.12,21694,20.63,74072.3,0.23,-35.01,-35.59,0,*49
1496448068.33,21695,20.63,74072.8,0.27,-34.89,-35.65,0,*42
1496448069.56,21696,20.63,74074.8,0.23,-34.95,-35.59,0,*47
1496448070.76,21697,20.63,74076.3,0.23,-35.01,-35.59,0,*4A
1496448071.99,21698,20.63,74072.8,0.23,-35.01,-35.53,0,*4F
1496448073.24,21699,20.63,74072.8,0.23,-34.83,-35.41,0,*46
1496448074.49,21700,20.63,74074.5,0.23,-34.83,-35.35,0,*44
1496448075.74,21701,20.63,74072.8,0.21,-35.01,-35.41,0,*4F
1496448076.96,21702,20.63,74074.3,0.19,-35.01,-35.41,0,*47
1496448078.24,21703,20.63,74074.8,0.21,-34.83,-35.41,0,*46
1496448079.49,21704,20.63,74072.8,0.21,-34.83,-35.29,0,*4F
1496448080.75,21705,20.63,74074.3,0.21,-34.65,-35.29,0,*46
1496448081.97,21706,20.63,74074.5,0.23,-34.65,-35.17,0,*4A
1496448083.22,21707,20.63,74072.3,0.23,-34.65,-35.07,0,*4A
1496448084.43,21708,20.63,74070.5,0.23,-34.47,-35.01,0,*43
1496448085.66,21709,20.63,74074.5,0.23,-34.47,-35.07,0,*44
1496448086.86,21710,20.63,74074.8,0.23,-34.59,-35.01,0,*45
1496448088.09,21711,20.63,74070.8,0.23,-34.47,-35.07,0,*4D
1496448089.34,21712,20.63,74070.5,0.23,-34.31,-34.83,0,*42
1496448090.57,21713,20.63,74068.8,0.23,-34.07,-34.65,0,*4E
1496448091.76,21714,20.63,74062.8,0.23,-33.95,-34.59,0,*4A
1496448092.96,21715,20.63,74064.5,0.23,-34.25,-34.77,0,*4B
1496448094.16,21716,20.63,74058.3,0.27,-34.07,-34.71,0,*4A
1496448095.39,21717,20.63,74050.8,0.23,-34.07,-34.65,0,*4A
1496448096.59,21718,20.63,74050.0,0.27,-34.07,-34.71,0,*44
1496448097.8,21719,20.63,74054.8,0.23,-33.89,-34.59,0,*4A
1496448099.02,21720,20.63,74060.3,0.27,-33.83,-34.35,0,*44
1496448100.26,21721,20.63,74056.0,0.27,-33.31,-33.89,0,*4C
1496448101.53,21722,20.63,74056.8,0.29,-33.31,-33.89,0,*41
1496448102.78,21723,20.63,74058.8,0.27,-33.73,-34.35,0,*48
1496448103.99,21724,20.63,74058.8,0.29,-34.25,-34.89,0,*42
1496448105.21,21725,20.63,74064.3,0.31,-34.19,-34.89,0,*45
1496448106.4,21726,20.63,74062.8,0.31,-34.13,-34.71,0,*4B
1496448107.62,21727,20.63,74064.5,0.29,-34.07,-34.59,0,*4C
1496448108.84,21728,20.63,74064.3,0.31,-34.13,-34.83,0,*48
1496448110.06,21729,20.63,74066.0,0.29,-34.41,-35.01,0,*4C
1496448111.31,21730,20.63,74064.8,0.31,-34.35,-34.95,0,*42
1496448112.53,21731,20.63,74066.8,0.31,-34.35,-34.89,0,*4E
1496448113.77,21732,20.63,74064.5,0.29,-34.41,-34.95,0,*4A
1496448115.01,21733,20.63,74068.0,0.31,-34.19,-34.83,0,*48
1496448116.26,21734,20.63,74066.8,0.31,-34.35,-34.95,0,*46
1496448117.51,21735,20.63,74066.0,0.29,-34.77,-35.35,0,*43
1496448118.76,21736,20.63,74066.5,0.29,-34.95,-35.47,0,*49
1496448119.98,21737,20.63,74068.8,0.29,-34.89,-35.47,0,*45
1496448121.23,21738,20.63,74068.3,0.29,-34.77,-35.23,0,*49
1496448122.47,21739,20.63,74070.5,0.31,-34.65,-35.23,0,*42
1496448123.7,21740,20.63,74064.5,0.29,-34.59,-35.13,0,*49
1496448124.95,21741,20.63,74068.0,0.29,-34.71,-35.35,0,*46
1496448126.18,21742,20.63,74070.0,0.29,-34.71,-35.17,0,*45
1496448127.42,21743,20.63,74064.5,0.29,-34.89,-35.53,0,*43
1496448128.64,21744,20.63,74070.0,0.29,-34.89,-35.47,0,*41
1496448129.87,21745,20.63,74070.8,0.29,-34.77,-35.47,0,*41
1496448131.1,21746,20.63,74070.8,0.29,-34.77,-35.29,0,*4A
1496448132.3,21747,20.63,74068.8,0.27,-34.59,-35.17,0,*44
1496448133.5,21748,20.63,74066.5,0.27,-34.59,-35.13,0,*4F
1496448134.7,21749,20.63,74066.0,0.27,-34.59,-35.13,0,*4E
1496448135.92,21750,20.63,74060.5,0.29,-34.41,-35.13,0,*41
1496448137.11,21751,20.63,74062.5,0.31,-34.41,-35.17,0,*4D
1496448138.33,21752,20.63,74064.0,0.29,-34.89,-35.47,0,*46
1496448139.53,21753,20.63,74060.8,0.27,-34.89,-35.47,0,*49
1496448140.75,21754,20.63,74058.8,0.27,-34.89,-35.53,0,*4B
1496448141.96,21755,20.63,74064.3,0.27,-34.77,-35.29,0,*46
1496448143.18,21756,20.63,74066.8,0.27,-34.95,-35.47,0,*41
1496448144.41,21757,20.63,74062.3,0.27,-34.71,-35.35,0,*4F
1496448145.61,21758,20.63,74066.0,0.27,-34.89,-35.47,0,*42
1496448146.83,21759,20.63,74062.0,0.27,-34.89,-35.53,0,*46
1496448148.02,21760,20.63,74066.3,0.23,-34.89,-35.47,0,*4D
1496448149.28,21761,20.63,74068.3,0.23,-34.95,-35.53,0,*44
1496448150.53,21762,20.63,74072.0,0.23,-34.83,-35.41,0,*43
1496448151.73,21763,20.63,74068.5,0.23,-35.01,-35.71,0,*4A
1496448152.98,21764,20.63,74070.5,0.23,-34.83,-35.41,0,*45
1496448154.23,21765,20.63,74070.8,0.23,-34.95,-35.35,0,*40
1496448155.48,21766,20.63,74074.8,0.23,-34.83,-35.41,0,*47
1496448156.7,21767,20.63,74070.0,0.23,-34.77,-35.23,0,*49
1496448157.93,21768,20.63,74072.3,0.23,-34.77,-35.23,0,*46
1496448159.15,21769,20.63,74068.0,0.27,-34.19,-34.59,0,*47
1496448160.34,21770,20.63,74070.5,0.27,-34.25,-34.77,0,*4C
1496448161.57,21771,20.63,74070.5,0.23,-34.59,-35.23,0,*42
1496448162.77,21772,20.63,74074.5,0.27,-34.71,-35.29,0,*45
1496448163.99,21773,20.63,74068.3,0.27,-34.89,-35.35,0,*4E
1496448165.24,21774,20.63,74070.8,0.23,-34.95,-35.35,0,*40
1496448166.46,21775,20.63,74072.0,0.27,-34.89,-35.35,0,*48
1496448167.71,21776,20.63,74068.8,0.23,-34.95,-35.41,0,*41
1496448168.97,21777,20.63,74070.3,0.23,-34.95,-35.53,0,*43
1496448170.19,21778,20.63,74072.8,0.23,-34.95,-35.59,0,*46
1496448171.42,21779,20.63,74072.3,0.23,-35.01,-35.53,0,*41
1496448172.61,21780,20.63,74072.0,0.23,-35.17,-35.71,0,*40
1496448173.84,21781,20.63,74074.5,0.23,-35.07,-35.71,0,*40
1496448175.06,21782,20.63,74070.3,0.23,-35.07,-35.71,0,*43
1496448176.26,21783,20.63,74074.0,0.23,-35.17,-35.77,0,*45
1496448177.48,21784,20.63,74070.3,0.21,-35.13,-35.77,0,*44
1496448178.71,21785,20.63,74072.0,0.21,-35.13,-35.77,0,*45
1496448179.95,21786,20.63,74072.0,0.19,-35.07,-35.65,0,*4B
1496448181.18,21787,20.63,74068.5,0.19,-35.13,-35.83,0,*47
1496448182.41,21788,20.63,74068.8,0.21,-35.01,-35.47,0,*48
1496448183.63,21789,20.63,74072.0,0.19,-35.01,-35.41,0,*44
1496448184.83,21790,20.63,74074.3,0.19,-34.89,-35.47,0,*4B
1496448186.05,21791,20.63,74074.3,0.19,-35.07,-35.59,0,*42
1496448187.3,21792,20.63,74074.3,0.19,-35.07,-35.65,0,*4E
1496448188.55,21793,20.63,74070.3,0.19,-35.07,-35.65,0,*4F
1496448189.77,21794,20.63,74072.8,0.19,-35.07,-35.59,0,*47
1496448190.98,21795,20.63,74072.0,0.19,-35.01,-35.47,0,*4F
1496448192.21,21796,20.63,74074.5,0.19,-34.65,-35.13,0,*4E
1496448193.43,21797,20.63,74072.3,0.19,-34.35,-34.71,0,*4F
1496448194.65,21798,20.63,74072.8,0.19,-34.01,-34.71,0,*47
1496448195.88,21799,20.63,74074.0,0.19,-34.35,-35.01,0,*47
1496448197.13,21800,20.63,74070.0,0.19,-34.53,-35.07,0,*4E
1496448198.36,21801,20.63,74070.3,0.19,-34.47,-35.07,0,*4A
1496448199.61,21802,20.63,74070.8,0.19,-34.01,-34.65,0,*4E
1496448200.83,21803,20.63,74070.8,0.19,-34.35,-34.89,0,*4A
1496448202.08,21804,20.63,74066.5,0.19,-34.53,-35.07,0,*4A
1496448203.32,21805,20.63,74066.8,0.19,-34.35,-34.83,0,*46
1496448204.55,21806,20.63,74062.8,0.19,-34.65,-35.13,0,*48
1496448205.8,21807,20.63,74060.3,0.21,-34.83,-35.29,0,*43
1496448207.01,21808,20.63,74056.8,0.19,-34.47,-35.01,0,*45
1496448208.24,21809,20.63,74058.3,0.19,-34.53,-35.13,0,*42
1496448209.47,21810,20.63,74054.8,0.19,-34.65,-35.13,0,*4F
1496448210.72,21811,20.63,74054.0,0.19,-34.65,-35.23,0,*4D
1496448211.92,21812,20.63,74050.0,0.19,-34.71,-35.13,0,*48
1496448213.13,21813,20.63,74048.3,0.19,-34.47,-35.13,0,*4C
1496448214.36,21814,20.63,74050.0,0.21,-34.47,-35.01,0,*43
1496448215.56,21815,20.63,74054.5,0.19,-34.71,-35.13,0,*4F
1496448216.79,21816,20.63,74054.3,0.19,-34.71,-35.07,0,*49
1496448218.04,21817,20.63,74054.8,0.19,-34.83,-35.23,0,*43
1496448219.27,21818,20.63,74054.8,0.19,-34.65,-35.29,0,*4E
1496448220.49,21819,20.63,74052.0,0.19,-34.71,-35.23,0,*40
1496448221.72,21820,20.63,74058.3,0.17,-34.77,-35.29,0,*48
1496448222.94,21821,20.63,74056.8,0.17,-34.59,-35.17,0,*48
1496448224.17,21822,20.63,74058.8,0.19,-34.47,-35.07,0,*4B
1496448225.37,21823,20.63,74056.5,0.19,-34.89,-35.29,0,*44
1496448226.58,21824,20.63,74056.0,0.19,-34.71,-35.29,0,*44
1496448227.8,21825,20.63,74060.3,0.17,-34.89,-35.29,0,*4C
1496448229.02,21826,20.63,74062.0,0.17,-34.89,-35.47,0,*47
1496448230.26,21827,20.63,74064.0,0.17,-34.89,-35.53,0,*43
1496448231.49,21828,20.63,74062.0,0.17,-34.71,-35.29,0,*46
1496448232.72,21829,20.63,74062.5,0.17,-34.71,-35.29,0,*47
1496448233.99,21830,20.63,74062.8,0.17,-34.95,-35.53,0,*48
1496448235.21,21831,20.56,74062.5,0.17,-34.89,-35.47,0,*41
1496448236.47,21832,20.63,74066.0,0.17,-34.95,-35.65,0,*4F
1496448237.7,21833,20.63,74066.3,0.17,-34.71,-35.17,0,*41
1496448238.94,21834,20.63,74064.8,0.17,-34.77,-35.35,0,*40
1496448240.15,21835,20.56,74060.8,0.15,-34.71,-35.17,0,*45
1496448241.35,21836,20.63,74070.3,0.15,-34.59,-35.17,0,*4C
1496448242.59,21837,20.63,74068.0,0.17,-34.71,-35.35,0,*45
1496448243.82,21838,20.63,74068.5,0.17,-34.71,-35.29,0,*47
1496448245.05,21839,20.63,74068.0,0.17,-34.71,-35.29,0,*46
1496448246.26,21840,20.63,74072.0,0.15,-34.59,-35.13,0,*49
1496448247.53,21841,20.63,74072.5,0.17,-34.35,-34.95,0,*4F
1496448248.77,21842,20.63,74072.3,0.17,-34.41,-35.07,0,*45
1496448249.99,21843,20.63,74074.8,0.15,-34.35,-34.89,0,*42
1496448251.21,21844,20.63,74072.8,0.17,-34.25,-34.77,0,*47
1496448252.42,21845,20.63,74074.8,0.17,-34.25,-34.89,0,*47
1496448253.63,21846,20.56,74068.0,0.17,-34.25,-34.77,0,*45
1496448254.88,21847,20.56,74070.0,0.17,-34.41,-34.95,0,*4A
1496448256.12,21848,20.63,74070.3,0.17,-34.59,-35.07,0,*46
1496448257.35,21849,20.63,74070.5,0.19,-34.35,-35.01,0,*45
1496448258.6,21850,20.56,74070.3,0.21,-34.19,-34.71,0,*4E
1496448259.85,21851,20.63,74070.3,0.19,-34.65,-35.07,0,*4F
1496448261.09,21852,20.56,74064.8,0.17,-34.77,-35.35,0,*40
1496448262.33,21853,20.63,74068.8,0.17,-34.89,-35.35,0,*40
1496448263.58,21854,20.63,74066.3,0.17,-34.95,-35.47,0,*4F
1496448264.85,21855,20.63,74064.3,0.17,-34.95,-35.53,0,*4B
1496448266.05,21856,20.63,74066.5,0.15,-34.59,-35.17,0,*4A
1496448267.28,21857,20.63,74064.5,0.17,-34.59,-35.17,0,*49
1496448268.5,21858,20.56,74066.5,0.17,-34.59,-35.29,0,*4B
1496448269.73,21859,20.63,74066.8,0.15,-34.71,-35.35,0,*4F
1496448270.96,21860,20.63,74064.0,0.17,-34.71,-35.29,0,*4A
1496448272.19,21861,20.63,74064.5,0.15,-34.77,-35.53,0,*42
1496448273.42,21862,20.63,74064.0,0.15,-34.77,-35.35,0,*41
1496448274.62,21863,20.63,74066.0,0.15,-34.77,-35.47,0,*45
1496448275.85,21864,20.56,74062.0,0.15,-34.95,-35.47,0,*4E
1496448277.07,21865,20.56,74062.8,0.15,-34.89,-35.53,0,*47
1496448278.32,21866,20.56,74064.0,0.15,-34.95,-35.53,0,*49
1496448279.6,21867,20.63,74064.8,0.13,-34.95,-35.53,0,*4E
1496448280.88,21868,20.63,74064.5,0.13,-34.95,-35.53,0,*41
1496448282.15,21869,20.56,74064.3,0.13,-34.95,-35.53,0,*40
1496448283.43,21870,20.63,74066.0,0.13,-34.95,-35.53,0,*48
1496448284.7,21871,20.63,74066.5,0.11,-34.95,-35.53,0,*4B
1496448285.98,21872,20.63,74068.3,0.11,-34.95,-35.41,0,*4B
1496448287.22,21873,20.56,74066.3,0.11,-34.95,-35.59,0,*43
1496448288.49,21874,20.63,74068.0,0.11,-34.95,-35.53,0,*4E
1496448289.76,21875,20.63,74070.5,0.11,-34.83,-35.35,0,*48
1496448291.04,21876,20.63,74068.8,0.13,-34.83,-35.35,0,*49
1496448292.31,21877,20.63,74068.8,0.11,-34.83,-35.41,0,*49
1496448293.55,21878,20.63,74070.0,0.11,-34.77,-35.23,0,*49
1496448294.82,21879,20.63,74068.5,0.11,-34.65,-35.23,0,*4B
1496448296.05,21880,20.63,74074.5,0.13,-34.59,-35.13,0,*43
1496448297.3,21881,20.56,74068.8,0.11,-34.77,-35.35,0,*48
1496448298.54,21882,20.63,74070.5,0.11,-35.01,-35.53,0,*4B
1496448299.81,21883,20.56,74070.5,0.11,-34.83,-35.41,0,*42
1496448301.08,21884,20.56,74068.8,0.11,-34.83,-35.35,0,*46
1496448302.35,21885,20.56,74068.8,0.11,-34.65,-35.23,0,*48
1496448303.59,21886,20.63,74072.3,0.09,-34.65,-35.23,0,*72
1496448304.81,21887,20.63,74072.0,0.09,-34.71,-35.23,0,*76
1496448306.08,21888,20.56,74070.5,0.07,-34.65,-35.23,0,*72
1496448307.29,21889,20.56,74068.5,0.09,-34.65,-35.17,0,*7A
1496448308.51,21890,20.56,74070.3,0.09,-34.47,-35.07,0,*73
1496448309.75,21891,20.63,74072.0,0.09,-34.53,-35.23,0,*71
1496448310.97,21892,20.56,74066.8,0.09,-34.65,-35.29,0,*7D
1496448312.19,21893,20.56,74066.3,0.09,-34.65,-35.17,0,*71
1496448313.41,21894,20.63,74068.0,0.09,-34.53,-35.29,0,*7E
1496448314.62,21895,20.63,74070.3,0.09,-34.53,-35.17,0,*72
1496448315.81,21896,20.63,74068.3,0.09,-34.47,-35.17,0,*74
1496448317.08,21897,20.63,74068.3,0.07,-34.65,-35.23,0,*7C
1496448318.34,21898,20.63,74070.5,0.07,-34.65,-35.29,0,*79
1496448319.59,21899,20.56,74068.0,0.07,-34.83,-35.29,0,*70
1496448320.79,21900,20.56,74068.5,0.09,-34.71,-35.29,0,*72
1496448321.99,21901,20.56,74066.5,0.09,-34.71,-35.29,0,*73
1496448323.2,21902,20.56,74066.5,0.07,-34.89,-35.47,0,*71
1496448324.43,21903,20.63,74070.0,0.07,-35.01,-35.47,0,*71
1496448325.64,21904,20.56,74068.8,0.07,-34.89,-35.59,0,*78
1496448326.89,21905,20.56,74070.0,0.07,-34.83,-35.59,0,*73
1496448328.1,21906,20.56,74068.8,0.07,-34.89,-35.59,0,*7A
1496448329.34,21907,20.63,74070.0,0.05,-34.95,-35.65,0,*7B
1496448330.58,21908,20.56,74068.8,0.05,-34.95,-35.53,0,*71
1496448331.82,21909,20.56,74070.0,0.05,-35.07,-35.65,0,*7F
1496448333.06,21910,20.56,74070.3,0.05,-35.07,-35.65,0,*77
1496448334.25,21911,20.56,74068.8,0.01,-35.01,-35.59,0,*7B
1496448335.49,21912,20.56,74070.5,0.05,-34.95,-35.65,0,*7F
1496448336.67,21913,20.56,74072.3,0.01,-35.13,-35.71,0,*70
1496448337.86,21914,20.56,74070.8,0.01,-35.13,-35.71,0,*77
1496448339.07,21915,20.56,74070.8,0.05,-34.89,-35.53,0,*70
1496448340.31,21916,20.56,74070.5,0.01,-34.83,-35.35,0,*7D
1496448341.53,21917,20.56,74070.0,0.01,-34.77,-35.35,0,*77
1496448342.75,21918,20.56,74066.8,0.01,-34.65,-35.29,0,*76
1496448343.99,21919,20.56,74070.8,0.01,-34.65,-35.41,0,*79
1496448345.23,21920,20.56,74070.8,0.01,-34.83,-35.41,0,*7B
1496448346.48,21921,20.56,74070.5,-0.01,-34.95,-35.59,0,*59
1496448347.71,21922,20.56,74068.8,-0.01,-35.01,-35.59,0,*56
1496448348.94,21923,20.56,74068.3,-0.03,-35.01,-35.83,0,*52
1496448350.18,21924,20.56,74068.3,-0.03,-34.65,-35.23,0,*5C
1496448351.38,21925,20.56,74070.0,-0.03,-34.89,-35.47,0,*5D
1496448352.6,21926,20.56,74068.0,-0.03,-34.47,-35.23,0,*5E
1496448353.82,21927,20.63,74068.5,-0.03,-34.31,-34.89,0,*5F
1496448355.09,21928,20.56,74070.5,-0.01,-34.31,-34.95,0,*5F
1496448356.31,21929,20.56,74070.5,-0.03,-34.35,-35.01,0,*54
1496448357.54,21930,20.56,74070.8,-0.03,-34.31,-35.01,0,*58
1496448358.77,21931,20.63,74072.3,-0.01,-34.59,-35.29,0,*5F
1496448359.97,21932,20.56,74068.3,-0.03,-34.47,-35.17,0,*5C
1496448361.21,21933,20.56,74070.3,-0.01,-34.07,-34.83,0,*57
1496448362.48,21934,20.63,74074.0,-0.01,-33.73,-34.31,0,*5D
1496448363.73,21935,20.56,74070.5,-0.01,-34.01,-34.59,0,*50
1496448364.98,21936,20.56,74068.3,-0.01,-34.31,-35.01,0,*5C
1496448366.23,21937,20.63,74072.3,-0.01,-34.31,-35.01,0,*5D
1496448367.42,21938,20.56,74068.0,0.01,-34.41,-35.13,0,*7B
1496448368.61,21939,20.56,74068.3,0.01,-34.47,-35.17,0,*78
1496448369.86,21940,20.56,74070.5,-0.01,-34.25,-34.95,0,*54
1496448371.11,21941,20.56,74066.8,-0.01,-34.13,-34.95,0,*50
1496448372.33,21942,20.56,74070.0,-0.01,-34.41,-35.29,0,*52
1496448373.55,21943,20.56,74066.5,-0.01,-34.41,-35.13,0,*5A
1496448374.78,21944,20.56,74068.8,-0.01,-34.47,-35.17,0,*5F
1496448376.06,21945,20.56,74068.3,-0.01,-34.65,-35.35,0,*5E
1496448377.3,21946,20.56,74064.3,-0.03,-34.53,-35.35,0,*5A
1496448378.5,21947,20.56,74068.0,-0.03,-34.47,-35.17,0,*5E
1496448379.75,21948,20.56,74070.5,-0.03,-34.65,-35.41,0,*52
1496448381.0,21949,20.56,74068.5,-0.03,-34.53,-35.23,0,*52
1496448382.22,21950,20.56,74070.3,-0.03,-34.71,-35.41,0,*5E
1496448383.42,21951,20.56,74068.3,-0.03,-34.89,-35.47,0,*5E
1496448384.64,21952,20.63,74072.0,-0.03,-34.83,-35.59,0,*58
1496448385.86,21953,20.56,74070.3,-0.05,-34.89,-35.59,0,*55
1496448387.13,21954,20.56,74070.0,-0.01,-34.83,-35.53,0,*56
1496448388.38,21955,20.56,74068.8,-0.05,-34.53,-35.17,0,*5E
1496448389.65,21956,20.63,74068.3,-0.05,-34.31,-35.07,0,*58
1496448390.9,21957,20.56,74064.5,-0.05,-34.31,-35.01,0,*5F
1496448392.17,21958,20.56,74060.3,-0.05,-34.65,-35.35,0,*56
1496448393.4,21959,20.56,74062.3,-0.03,-34.71,-35.41,0,*57
1496448394.59,21960,20.56,74064.3,-0.03,-34.89,-35.59,0,*53
1496448395.81,21961,20.56,74060.0,-0.05,-34.89,-35.59,0,*54
1496448397.08,21962,20.56,74058.8,-0.05,-34.83,-35.65,0,*52
1496448398.33,21963,20.56,74062.0,-0.05,-35.01,-35.65,0,*58
1496448399.6,21964,20.56,74056.8,-0.05,-35.07,-35.65,0,*59
1496448400.85,21965,20.56,74060.5,-0.07,-34.95,-35.65,0,*50
1496448402.04,21966,20.56,74058.5,-0.07,-35.13,-35.71,0,*59
1496448403.26,21967,20.56,74060.8,-0.05,-34.89,-35.47,0,*5D
1496448404.49,21968,20.56,74058.8,-0.07,-34.53,-35.29,0,*5F
1496448405.72,21969,20.56,74060.5,-0.07,-34.89,-35.53,0,*54
1496448406.97,21970,20.56,74058.8,-0.07,-34.95,-35.53,0,*51
1496448408.22,21971,20.56,74058.5,-0.09,-34.95,-35.59,0,*54
1496448409.49,21972,20.56,74060.0,-0.09,-34.83,-35.53,0,*5A
1496448410.77,21973,20.56,74056.0,-0.09,-34.65,-35.35,0,*53
1496448412.0,21974,20.56,74060.3,-0.09,-34.77,-35.47,0,*52
1496448413.24,21975,20.56,74062.3,-0.09,-34.59,-35.29,0,*57
1496448414.49,21976,20.56,74060.5,-0.09,-34.65,-35.47,0,*53
1496448415.7,21977,20.56,74066.8,-0.11,-34.77,-35.47,0,*68
1496448416.91,21978,20.56,74062.5,-0.07,-34.71,-35.29,0,*5E
1496448418.14,21979,20.56,74066.5,-0.09,-34.77,-35.47,0,*5F
1496448419.42,21980,20.56,74066.5,-0.09,-34.65,-35.35,0,*5F
1496448420.67,21981,20.56,74064.0,-0.09,-34.77,-35.53,0,*5D
1496448421.9,21982,20.56,74062.8,-0.11,-34.95,-35.59,0,*61
1496448423.18,21983,20.56,74068.0,-0.09,-34.83,-35.53,0,*54
1496448424.46,21984,20.56,74066.3,-0.09,-34.65,-35.35,0,*5B
1496448425.68,21985,20.56,74066.0,-0.11,-34.83,-35.47,0,*6E
1496448426.94,21986,20.56,74066.0,-0.11,-34.65,-35.35,0,*60
1496448428.19,21987,20.56,74070.8,-0.09,-34.59,-35.35,0,*57
1496448429.45,21988,20.56,74066.5,-0.11,-34.65,-35.35,0,*6E
1496448430.73,21989,20.56,74068.3,-0.09,-34.95,-35.53,0,*59
1496448431.93,21990,20.56,74068.0,-0.11,-34.47,-35.17,0,*67
1496448433.19,21991,20.56,74066.5,-0.11,-34.65,-35.35,0,*66
1496448434.47,21992,20.56,74072.5,-0.09,-34.95,-35.53,0,*53
1496448435.72,21993,20.56,74068.8,-0.11,-34.83,-35.53,0,*6C
1496448436.97,21994,20.56,74070.8,-0.09,-34.83,-35.59,0,*58
1496448438.25,21995,20.56,74068.3,-0.09,-34.83,-35.53,0,*53
1496448439.52,21996,20.56,74070.3,-0.09,-34.95,-35.53,0,*57
1496448440.78,21997,20.56,74070.3,-0.09,-34.95,-35.47,0,*53
1496448442.03,21998,20.56,74072.3,-0.09,-34.95,-35.47,0,*5C
1496448443.29,21999,20.56,74068.0,-0.09,-34.83,-35.47,0,*5A
1496448444.52,22000,20.56,74070.5,-0.11,-34.83,-35.47,0,*69
1496448445.75,22001,20.56,74068.0,-0.11,-34.95,-35.47,0,*6F
1496448447.03,22002,20.56,74066.5,-0.09,-34.95,-35.53,0,*50
1496448448.31,22003,20.56,74066.3,-0.09,-34.95,-35.53,0,*51
1496448449.56,22004,20.56,74068.0,-0.11,-34.95,-35.53,0,*6F
1496448450.84,22005,20.56,74068.0,-0.13,-35.07,-35.65,0,*63
1496448452.07,22006,20.56,74064.8,-0.11,-34.95,-35.47,0,*68
1496448453.28,22007,20.56,74064.8,-0.11,-35.01,-35.47,0,*65
1496448454.51,22008,20.56,74068.3,-0.11,-34.95,-35.59,0,*69
1496448455.76,22009,20.56,74062.8,-0.11,-34.83,-35.35,0,*65
1496448457.0,22010,20.56,74066.8,-0.11,-34.65,-35.29,0,*68
1496448458.23,22011,20.56,74064.3,-0.11,-34.65,-35.29,0,*69
1496448459.46,22012,20.56,74062.3,-0.11,-34.65,-35.47,0,*62
1496448460.72,22013,20.56,74062.3,-0.11,-34.95,-35.53,0,*69
1496448461.99,22014,20.56,74062.0,-0.13,-35.23,-35.65,0,*65
1496448463.25,22015,20.56,74062.5,-0.11,-34.95,-35.53,0,*6F
1496448464.51,22016,20.56,74060.5,-0.13,-35.01,-35.53,0,*62
1496448465.74,22017,20.56,74060.3,-0.13,-34.89,-35.59,0,*68
1496448466.99,22018,20.56,74056.3,-0.13,-35.07,-35.59,0,*60
1496448468.25,22019,20.56,74060.5,-0.13,-35.23,-35.77,0,*6B
1496448469.48,22020,20.56,74060.8,-0.13,-35.17,-35.77,0,*66
1496448470.71,22021,20.56,74062.0,-0.15,-35.01,-35.65,0,*65
1496448471.94,22022,20.56,74064.0,-0.13,-35.17,-35.59,0,*68
1496448473.17,22023,20.56,74064.8,-0.15,-35.07,-35.59,0,*6E
1496448474.38,22024,20.56,74066.3,-0.15,-35.01,-35.59,0,*6F
1496448475.6,22025,20.56,74066.5,-0.15,-34.89,-35.53,0,*65
1496448476.85,22026,20.56,74064.5,-0.17,-35.13,-35.65,0,*63
1496448478.11,22027,20.56,74070.5,-0.15,-34.83,-35.41,0,*6E
1496448479.36,22028,20.56,74070.5,-0.15,-34.53,-35.23,0,*68
1496448480.6,22029,20.56,74072.3,-0.15,-34.35,-35.01,0,*69
1496448481.85,22030,20.56,74072.0,-0.15,-33.89,-34.65,0,*62
1496448483.1,22031,20.56,74074.0,-0.13,-34.25,-34.83,0,*6C
1496448484.35,22032,20.56,74074.3,-0.15,-34.53,-35.23,0,*63
1496448485.61,22033,20.56,74066.5,-0.15,-34.65,-35.23,0,*67
1496448486.83,22034,20.56,74064.8,-0.15,-34.31,-34.71,0,*67
1496448488.1,22035,20.56,74064.8,-0.13,-34.07,-34.53,0,*65
1496448489.33,22036,20.56,74064.0,-0.13,-34.25,-35.01,0,*60
1496448490.58,22037,20.56,74064.5,-0.13,-34.35,-35.17,0,*67
1496448491.81,22038,20.56,74070.0,-0.15,-34.53,-35.17,0,*6E
1496448493.1,22039,20.56,74066.5,-0.13,-34.65,-35.35,0,*6C
1496448494.32,22040,20.56,74066.5,-0.09,-34.41,-35.17,0,*5F
1496448495.55,22041,20.56,74070.8,-0.15,-34.47,-35.07,0,*64
1496448496.8,22042,20.56,74070.5,-0.15,-34.35,-35.07,0,*62
1496448498.04,22043,20.56,74072.8,-0.13,-34.47,-35.17,0,*61
1496448499.32,22044,20.56,74076.3,-0.13,-34.53,-35.23,0,*64